Time,TemperatureF,DewpointF,PressureIn,WindDirection,WindDirectionDegrees,WindSpeedMPH,WindSpeedGustMPH,Humidity,HourlyPrecipIn,Conditions,Clouds,dailyrainin,SoftwareType,DateUTC
2013-07-24 00:02:00,84.0,73.0,29.80,SW,221,0.0,1.0,70,0.00,,,0.00,,2013-07-24 05:02:00,
2013-07-24 00:11:00,84.0,73.0,29.80,SW,218,0.0,1.0,70,0.00,,,0.00,,2013-07-24 05:11:00,
2013-07-24 00:22:00,84.0,74.0,29.80,SW,221,0.0,1.0,71,0.00,,,0.00,,2013-07-24 05:22:00,
2013-07-24 00:32:00,84.0,74.0,29.80,SW,221,0.0,1.0,71,0.00,,,0.00,,2013-07-24 05:32:00,
2013-07-24 00:43:00,83.0,73.0,29.79,SW,221,0.0,1.0,73,0.00,,,0.00,,2013-07-24 05:43:00,
2013-07-24 00:52:00,82.0,72.0,29.81,SE,131,0.0,1.0,73,0.00,,,0.00,,2013-07-24 05:52:00,
2013-07-24 01:01:00,82.0,72.0,29.81,SE,131,0.0,1.0,73,0.00,,,0.00,,2013-07-24 06:01:00,
2013-07-24 01:11:00,82.0,72.0,29.83,SE,136,0.0,0.0,72,0.00,,,0.00,,2013-07-24 06:11:00,
2013-07-24 01:24:00,82.0,72.0,29.83,SSW,210,0.0,1.0,72,0.00,,,0.00,,2013-07-24 06:24:00,
2013-07-24 01:34:00,82.0,72.0,29.83,SSW,210,0.0,1.0,72,0.00,,,0.00,,2013-07-24 06:34:00,
2013-07-24 01:43:00,82.0,71.0,29.83,SE,132,0.0,2.0,70,0.00,,,0.00,,2013-07-24 06:43:00,
2013-07-24 01:53:00,82.0,72.0,29.82,WSW,247,0.0,0.0,71,0.00,,,0.00,,2013-07-24 06:53:00,
2013-07-24 02:02:00,82.0,72.0,29.82,WSW,247,0.0,0.0,71,0.00,,,0.00,,2013-07-24 07:02:00,
2013-07-24 02:12:00,82.0,72.0,29.82,SE,145,0.0,0.0,71,0.00,,,0.00,,2013-07-24 07:12:00,
2013-07-24 02:22:00,82.0,72.0,29.83,SSW,211,0.0,2.0,71,0.00,,,0.00,,2013-07-24 07:22:00,
2013-07-24 02:32:00,82.0,72.0,29.83,SSW,211,0.0,2.0,71,0.00,,,0.00,,2013-07-24 07:32:00,
2013-07-24 02:43:00,81.0,71.0,29.83,ESE,114,0.0,0.0,72,0.00,,,0.00,,2013-07-24 07:43:00,
2013-07-24 02:52:00,81.0,71.0,29.82,South,181,0.0,1.0,72,0.00,,,0.00,,2013-07-24 07:52:00,
2013-07-24 03:02:00,81.0,71.0,29.82,South,181,0.0,1.0,72,0.00,,,0.00,,2013-07-24 08:02:00,
2013-07-24 03:12:00,80.0,70.0,29.83,WNW,285,0.0,1.0,72,0.00,,,0.00,,2013-07-24 08:12:00,
2013-07-24 03:22:00,81.0,70.0,29.82,SSE,165,0.0,2.0,70,0.00,,,0.00,,2013-07-24 08:22:00,
2013-07-24 03:32:00,81.0,70.0,29.82,SSE,165,0.0,2.0,70,0.00,,,0.00,,2013-07-24 08:32:00,
2013-07-24 03:42:00,80.0,69.0,29.83,SE,136,0.0,1.0,70,0.00,,,0.00,,2013-07-24 08:42:00,
2013-07-24 03:52:00,80.0,70.0,29.84,SE,136,0.0,1.0,71,0.00,,,0.00,,2013-07-24 08:52:00,
2013-07-24 04:02:00,80.0,70.0,29.84,SE,136,0.0,1.0,71,0.00,,,0.00,,2013-07-24 09:02:00,
2013-07-24 04:12:00,80.0,69.0,29.85,ESE,106,0.0,1.0,70,0.00,,,0.00,,2013-07-24 09:12:00,
2013-07-24 04:22:00,81.0,70.0,29.91,NNE,16,4.0,12.0,70,0.00,,,0.00,,2013-07-24 09:22:00,
2013-07-24 04:32:00,78.0,68.0,29.95,East,91,16.0,34.0,71,0.00,,,0.00,,2013-07-24 09:32:00,
2013-07-24 05:02:00,72.0,67.0,29.96,North,350,9.0,24.0,83,0.00,,,0.00,,2013-07-24 10:02:00,
2013-07-24 05:12:00,70.0,68.0,29.94,East,86,8.0,16.0,92,0.07,,,0.07,,2013-07-24 10:12:00,
2013-07-24 05:22:00,69.0,67.0,29.94,ENE,63,5.0,14.0,92,0.07,,,0.07,,2013-07-24 10:22:00,
2013-07-24 05:33:00,69.0,67.0,29.94,ENE,63,5.0,14.0,92,0.07,,,0.07,,2013-07-24 10:33:00,
2013-07-24 05:43:00,69.0,67.0,29.95,SE,129,7.0,14.0,92,0.07,,,0.07,,2013-07-24 10:43:00,
2013-07-24 05:53:00,69.0,67.0,29.96,ENE,77,4.0,11.0,92,0.07,,,0.07,,2013-07-24 10:53:00,
2013-07-24 06:02:00,69.0,67.0,29.96,ENE,77,4.0,11.0,92,0.07,,,0.07,,2013-07-24 11:02:00,
2013-07-24 06:12:00,69.0,67.0,29.94,East,91,5.0,13.0,93,0.00,,,0.07,,2013-07-24 11:12:00,
2013-07-24 06:22:00,70.0,68.0,29.94,ENE,64,0.0,8.0,93,0.00,,,0.07,,2013-07-24 11:22:00,
2013-07-24 06:32:00,70.0,68.0,29.94,ENE,64,0.0,8.0,93,0.00,,,0.07,,2013-07-24 11:32:00,
2013-07-24 06:43:00,70.0,68.0,29.93,East,98,0.0,6.0,93,0.03,,,0.10,,2013-07-24 11:43:00,
2013-07-24 06:52:00,70.0,68.0,29.94,ENE,67,1.0,6.0,94,0.05,,,0.12,,2013-07-24 11:52:00,
2013-07-24 07:02:00,70.0,68.0,29.94,ENE,67,1.0,6.0,94,0.05,,,0.12,,2013-07-24 12:02:00,
2013-07-24 07:12:00,70.0,68.0,29.93,SW,217,1.0,5.0,94,0.05,,,0.12,,2013-07-24 12:12:00,
2013-07-24 07:22:00,70.0,68.0,29.96,ENE,57,2.0,5.0,94,0.05,,,0.12,,2013-07-24 12:22:00,
2013-07-24 07:32:00,70.0,68.0,29.96,ENE,57,2.0,5.0,94,0.05,,,0.12,,2013-07-24 12:32:00,
2013-07-24 07:42:00,70.0,68.0,30.04,North,356,4.0,16.0,94,0.02,,,0.12,,2013-07-24 12:42:00,
2013-07-24 07:52:00,68.0,66.0,30.08,NNW,340,4.0,13.0,93,0.28,,,0.40,,2013-07-24 12:52:00,
2013-07-24 08:02:00,68.0,66.0,30.08,NNW,340,4.0,13.0,93,0.28,,,0.40,,2013-07-24 13:02:00,
2013-07-24 08:12:00,67.0,65.0,30.03,East,91,2.0,10.0,94,0.70,,,0.82,,2013-07-24 13:12:00,
2013-07-24 08:22:00,67.0,66.0,30.02,SW,228,0.0,2.0,95,0.74,,,0.86,,2013-07-24 13:22:00,
2013-07-24 08:32:00,67.0,66.0,30.02,SW,228,0.0,2.0,95,0.74,,,0.86,,2013-07-24 13:32:00,
2013-07-24 08:43:00,67.0,66.0,30.01,SE,143,2.0,6.0,96,0.75,,,0.87,,2013-07-24 13:43:00,
2013-07-24 08:53:00,68.0,67.0,29.99,South,184,0.0,3.0,97,0.42,,,0.89,,2013-07-24 13:53:00,
2013-07-24 09:02:00,68.0,67.0,29.99,South,184,0.0,3.0,97,0.42,,,0.89,,2013-07-24 14:02:00,
2013-07-24 09:12:00,68.0,67.0,29.98,SSW,210,0.0,4.0,97,0.08,,,0.91,,2013-07-24 14:12:00,
2013-07-24 09:22:00,68.0,67.0,29.98,SW,226,0.0,2.0,97,0.07,,,0.93,,2013-07-24 14:22:00,
2013-07-24 09:32:00,68.0,67.0,29.98,SW,226,0.0,2.0,97,0.07,,,0.93,,2013-07-24 14:32:00,
2013-07-24 09:43:00,68.0,67.0,29.97,WSW,238,2.0,3.0,96,0.07,,,0.94,,2013-07-24 14:43:00,
2013-07-24 09:55:00,68.0,67.0,29.93,SW,236,2.0,6.0,97,0.08,,,0.97,,2013-07-24 14:55:00,
2013-07-24 10:02:00,68.0,67.0,29.93,SW,236,2.0,6.0,97,0.08,,,0.97,,2013-07-24 15:02:00,
2013-07-24 10:12:00,68.0,67.0,29.92,South,188,2.0,8.0,97,0.08,,,0.99,,2013-07-24 15:12:00,
2013-07-24 10:22:00,68.0,67.0,29.88,SSE,155,3.0,10.0,96,0.07,,,1.00,,2013-07-24 15:22:00,
2013-07-24 10:32:00,68.0,67.0,29.88,SSE,155,3.0,10.0,96,0.07,,,1.00,,2013-07-24 15:32:00,
2013-07-24 10:43:00,68.0,67.0,29.90,SW,224,2.0,6.0,96,0.06,,,1.00,,2013-07-24 15:43:00,
2013-07-24 10:52:00,70.0,68.0,29.92,SE,127,1.0,4.0,95,0.02,,,1.00,,2013-07-24 15:52:00,
2013-07-24 11:02:00,70.0,68.0,29.92,SE,127,1.0,4.0,95,0.02,,,1.00,,2013-07-24 16:02:00,
2013-07-24 11:12:00,72.0,70.0,29.93,West,266,0.0,3.0,93,0.01,,,1.00,,2013-07-24 16:12:00,
2013-07-24 11:22:00,73.0,69.0,29.93,SSW,194,0.0,2.0,88,0.00,,,1.00,,2013-07-24 16:22:00,
2013-07-24 11:32:00,73.0,69.0,29.93,SSW,194,0.0,2.0,88,0.00,,,1.00,,2013-07-24 16:32:00,
2013-07-24 11:43:00,74.0,70.0,29.93,SW,217,0.0,2.0,86,0.00,,,1.00,,2013-07-24 16:43:00,
2013-07-24 11:53:00,77.0,71.0,29.93,WNW,285,0.0,3.0,82,0.00,,,1.00,,2013-07-24 16:53:00,
2013-07-24 12:02:00,77.0,71.0,29.93,WNW,285,0.0,3.0,82,0.00,,,1.00,,2013-07-24 17:02:00,
2013-07-24 12:12:00,78.0,69.0,29.92,WNW,300,0.0,2.0,75,0.00,,,1.00,,2013-07-24 17:12:00,
2013-07-24 12:22:00,79.0,71.0,29.93,East,100,0.0,1.0,77,0.00,,,1.00,,2013-07-24 17:22:00,
2013-07-24 12:33:00,79.0,71.0,29.93,East,100,0.0,1.0,77,0.00,,,1.00,,2013-07-24 17:33:00,
2013-07-24 12:43:00,82.0,72.0,29.92,NW,318,0.0,3.0,71,0.00,,,1.00,,2013-07-24 17:43:00,
2013-07-24 13:12:00,85.0,71.0,29.93,North,356,2.0,4.0,63,0.00,,,1.00,,2013-07-24 18:12:00,
2013-07-24 13:33:00,86.0,71.0,29.92,NW,309,0.0,3.0,62,0.00,,,1.00,,2013-07-24 18:33:00,
2013-07-24 14:22:00,89.0,72.0,29.93,NNW,329,3.0,6.0,58,0.00,,,1.00,,2013-07-24 19:22:00,
2013-07-24 14:32:00,89.0,72.0,29.93,NNW,329,3.0,6.0,58,0.00,,,1.00,,2013-07-24 19:32:00,
2013-07-24 14:43:00,89.0,72.0,29.93,ENE,65,2.0,7.0,58,0.00,,,1.00,,2013-07-24 19:43:00,
2013-07-24 14:53:00,89.0,72.0,29.93,North,354,2.0,7.0,57,0.00,,,1.00,,2013-07-24 19:53:00,
2013-07-24 15:02:00,89.0,72.0,29.93,North,354,2.0,7.0,57,0.00,,,1.00,,2013-07-24 20:02:00,
2013-07-24 15:13:00,89.0,73.0,29.93,North,357,1.0,6.0,60,0.00,,,1.00,,2013-07-24 20:13:00,
2013-07-24 15:22:00,92.0,74.0,29.93,NNW,334,2.0,6.0,56,0.00,,,1.00,,2013-07-24 20:22:00,
2013-07-24 15:32:00,92.0,74.0,29.93,NNW,334,2.0,6.0,56,0.00,,,1.00,,2013-07-24 20:32:00,
2013-07-24 15:42:00,91.0,74.0,29.93,East,90,2.0,8.0,58,0.00,,,1.00,,2013-07-24 20:42:00,
2013-07-24 15:52:00,91.0,74.0,29.92,SSE,150,3.0,8.0,58,0.00,,,1.00,,2013-07-24 20:52:00,
2013-07-24 16:02:00,91.0,74.0,29.92,SSE,150,3.0,8.0,58,0.00,,,1.00,,2013-07-24 21:02:00,
2013-07-24 16:12:00,91.0,74.0,29.92,East,85,3.0,9.0,58,0.00,,,1.00,,2013-07-24 21:12:00,
2013-07-24 16:22:00,91.0,73.0,29.92,ENE,68,5.0,9.0,56,0.00,,,1.00,,2013-07-24 21:22:00,
2013-07-24 16:32:00,91.0,73.0,29.92,ENE,68,5.0,9.0,56,0.00,,,1.00,,2013-07-24 21:32:00,
2013-07-24 16:43:00,91.0,73.0,29.91,NNW,343,2.0,8.0,56,0.00,,,1.00,,2013-07-24 21:43:00,
2013-07-24 17:02:00,91.0,73.0,29.91,NNE,26,4.0,12.0,55,0.00,,,1.00,,2013-07-24 22:02:00,
2013-07-24 17:12:00,90.0,70.0,29.91,ENE,72,4.0,9.0,52,0.00,,,1.00,,2013-07-24 22:12:00,
2013-07-24 17:22:00,91.0,71.0,29.90,NW,306,3.0,7.0,52,0.00,,,1.00,,2013-07-24 22:22:00,
2013-07-24 17:32:00,91.0,71.0,29.90,NW,306,3.0,7.0,52,0.00,,,1.00,,2013-07-24 22:32:00,
2013-07-24 17:43:00,90.0,72.0,29.91,East,86,4.0,8.0,55,0.00,,,1.00,,2013-07-24 22:43:00,
2013-07-24 17:53:00,90.0,72.0,29.91,NW,326,4.0,7.0,55,0.00,,,1.00,,2013-07-24 22:53:00,
2013-07-24 18:02:00,90.0,72.0,29.91,NW,326,4.0,7.0,55,0.00,,,1.00,,2013-07-24 23:02:00,
2013-07-24 18:12:00,89.0,71.0,29.91,ENE,78,3.0,6.0,56,0.00,,,1.00,,2013-07-24 23:12:00,
2013-07-24 18:32:00,89.0,72.0,29.90,East,89,2.0,8.0,57,0.00,,,1.00,,2013-07-24 23:32:00,
2013-07-24 18:43:00,88.0,73.0,29.91,ENE,74,5.0,9.0,61,0.00,,,1.00,,2013-07-24 23:43:00,
2013-07-24 19:02:00,88.0,72.0,29.91,East,89,3.0,7.0,60,0.00,,,1.00,,2013-07-25 00:02:00,
2013-07-24 19:12:00,87.0,73.0,29.91,ENE,70,3.0,6.0,63,0.00,,,1.00,,2013-07-25 00:12:00,
2013-07-24 19:33:00,87.0,73.0,29.91,ENE,67,2.0,7.0,64,0.00,,,1.00,,2013-07-25 00:33:00,
2013-07-24 19:43:00,86.0,73.0,29.91,East,96,2.0,7.0,65,0.00,,,1.00,,2013-07-25 00:43:00,
2013-07-24 19:52:00,86.0,73.0,29.91,East,96,2.0,7.0,65,0.00,,,1.00,,2013-07-25 00:52:00,
2013-07-24 20:02:00,86.0,73.0,29.91,East,101,2.0,6.0,66,0.00,,,1.00,,2013-07-25 01:02:00,
2013-07-24 20:12:00,85.0,73.0,29.92,ENE,65,1.0,4.0,68,0.00,,,1.00,,2013-07-25 01:12:00,
2013-07-24 20:22:00,85.0,73.0,29.92,ENE,65,1.0,4.0,68,0.00,,,1.00,,2013-07-25 01:22:00,
2013-07-24 20:32:00,84.0,74.0,29.92,East,91,1.0,3.0,71,0.00,,,1.00,,2013-07-25 01:32:00,
2013-07-24 20:42:00,84.0,74.0,29.93,ESE,104,0.0,3.0,73,0.00,,,1.00,,2013-07-25 01:42:00,
2013-07-24 21:02:00,83.0,74.0,29.93,East,79,0.0,3.0,74,0.00,,,1.00,,2013-07-25 02:02:00,
2013-07-24 21:12:00,82.0,74.0,29.93,SE,129,0.0,3.0,76,0.00,,,1.00,,2013-07-25 02:12:00,
2013-07-24 21:22:00,82.0,74.0,29.93,SE,129,0.0,3.0,76,0.00,,,1.00,,2013-07-25 02:22:00,
2013-07-24 21:33:00,81.0,73.0,29.94,SSW,211,0.0,1.0,77,0.00,,,1.00,,2013-07-25 02:33:00,
2013-07-24 21:43:00,80.0,73.0,29.94,SE,124,0.0,0.0,79,0.00,,,1.00,,2013-07-25 02:43:00,
2013-07-24 22:02:00,79.0,73.0,29.96,South,172,0.0,1.0,82,0.00,,,1.00,,2013-07-25 03:02:00,
2013-07-24 22:14:00,79.0,73.0,29.96,SSE,155,0.0,1.0,83,0.00,,,1.00,,2013-07-25 03:14:00,
2013-07-24 22:35:00,78.0,73.0,29.97,ESE,118,0.0,1.0,85,0.00,,,1.00,,2013-07-25 03:35:00,
2013-07-24 22:44:00,78.0,73.0,29.98,ESE,119,0.0,1.0,85,0.00,,,1.00,,2013-07-25 03:44:00,
2013-07-24 23:02:00,77.0,73.0,29.98,SE,129,0.0,0.0,87,0.00,,,1.00,,2013-07-25 04:02:00,
2013-07-24 23:12:00,77.0,73.0,29.98,SE,132,0.0,1.0,88,0.00,,,1.00,,2013-07-25 04:12:00,
2013-07-24 23:22:00,77.0,73.0,29.98,SE,132,0.0,1.0,88,0.00,,,1.00,,2013-07-25 04:22:00,
2013-07-24 23:32:00,76.0,72.0,29.99,SSE,152,0.0,1.0,88,0.00,,,1.00,,2013-07-25 04:32:00,
2013-07-24 23:43:00,76.0,73.0,29.99,SSE,152,0.0,1.0,90,0.00,,,1.00,,2013-07-25 04:43:00,